DW9234 Weather Reports


time (UTC)temp
F
wind
direction
speed
knots
gust
knots
rain 1hr
in
rain 24hr
in
rain mn
in
humidity
%
barometer
mb
20260502221004 59 275 0.0 6.1 0.00 0.00 0.00 29 1013.0
20260502220004 59 59 0.0 6.1 0.00 0.00 0.00 28 1012.9
20260502215004 60 46 0.9 8.7 0.00 0.00 0.00 29 1012.9
20260502214004 60 63 0.9 6.1 0.00 0.00 0.00 29 1013.0
20260502213004 60 92 0.0 3.5 0.00 0.00 0.00 27 1012.7
20260502212004 60 304 1.7 4.3 0.00 0.00 0.00 27 1012.7
20260502211004 60 78 0.0 7.0 0.00 0.00 0.00 27 1012.7
20260502205004 61 249 3.5 5.2 0.00 0.00 0.00 27 1012.4
20260502204004 61 124 0.9 5.2 0.00 0.00 0.00 24 1012.4
20260502203004 61 64 1.7 4.3 0.00 0.00 0.00 28 1012.4
20260502202003 62 80 3.5 4.3 0.00 0.00 0.00 26 1012.5
20260502201004 62 61 0.9 5.2 0.00 0.00 0.00 24 1012.5
20260502200004 63 91 0.0 6.1 0.00 0.00 0.00 24 1012.6
20260502195005 63 77 4.3 4.3 0.00 0.00 0.00 27 1012.8
20260502194004 63 351 0.9 5.2 0.00 0.00 0.00 28 1013.0
20260502192003 63 297 1.7 8.7 0.00 0.00 0.00 30 1013.3
20260502191004 62 240 0.0 3.5 0.00 0.00 0.00 32 1013.4
20260502190004 61 74 0.9 1.7 0.00 0.00 0.00 31 1013.6
20260502185004 62 64 1.7 4.3 0.00 0.00 0.00 31 1013.8
20260502184003 61 78 0.0 4.3 0.00 0.00 0.00 33 1013.9
20260502183003 62 138 0.9 4.3 0.00 0.00 0.00 32 1014.0
20260502182004 62 80 3.5 4.3 0.00 0.00 0.00 33 1014.0
20260502181003 62 60 0.9 7.0 0.00 0.00 0.00 31 1014.1
20260502164004 58 16 1.7 4.3 0.00 0.00 0.00 39 1014.5
20260502163003 58 63 1.7 4.3 0.00 0.00 0.00 36 1014.7
20260502161003 58 153 0.9 4.3 0.00 0.00 0.00 42 1014.9
20260502151005 54 59 2.6 5.2 0.00 0.00 0.00 48 1015.2
20260502123004 50 42 1.7 4.3 0.00 0.00 0.00 58 1015.4
20260502122004 50 238 1.7 7.0 0.00 0.00 0.00 58 1015.2
20260502121005 50 247 0.0 7.0 0.00 0.00 0.00 58 1015.3
20260502115005 50 304 0.9 7.0 0.00 0.00 0.00 60 1014.9
20260502114004 50 187 0.0 3.5 0.00 0.00 0.00 61 1015.0
20260502113005 50 162 0.0 3.5 0.00 0.00 0.00 61 1014.8
20260502112004 50 88 1.7 6.1 0.00 0.00 0.00 60 1014.8
20260502110005 50 51 1.7 6.1 0.00 0.00 0.00 60 1014.9
20260502104004 50 185 0.0 0.9 0.00 0.00 0.00 60 1014.6
20260502103004 50 184 0.0 3.5 0.00 0.00 0.00 60 1014.3
20260502101005 51 277 0.0 4.3 0.00 0.00 0.00 61 1013.9
20260502091004 52 162 0.0 0.0 0.00 0.00 0.00 64 1013.9
20260502071004 52 162 0.0 0.0 0.00 0.00 0.00 64 1013.6
20260502070005 52 162 0.0 0.0 0.00 0.00 0.00 64 1013.6
20260502065004 52 162 0.0 1.7 0.00 0.00 0.00 65 1013.6
20260502064004 52 300 0.0 3.5 0.00 0.00 0.00 66 1013.8
20260502063004 52 49 0.0 0.0 0.00 0.00 0.00 66 1014.0
20260502062004 52 121 0.0 0.0 0.00 0.00 0.00 66 1013.9
20260502061004 52 84 0.0 0.0 0.00 0.00 0.00 65 1013.8
20260502060005 52 84 0.0 0.0 0.00 0.00 0.00 64 1014.0
20260502054005 52 84 0.0 0.0 0.00 0.00 0.00 64 1013.9
20260502053004 52 84 0.0 0.0 0.00 0.00 0.00 64 1013.9
20260502051004 52 84 0.0 0.0 0.00 0.00 0.00 64 1014.1
20260502050005 53 84 0.0 0.0 0.00 0.00 0.00 64 1014.1
20260502045004 53 84 0.0 0.0 0.00 0.00 0.00 63 1014.0
20260502043004 53 84 0.0 0.0 0.00 0.00 0.00 63 1013.9
20260502042005 53 84 0.0 0.0 0.00 0.00 0.00 64 1014.1
20260502041005 53 84 0.0 0.0 0.00 0.00 0.00 65 1014.1
20260502040004 53 84 0.0 0.0 0.00 0.00 0.00 65 1014.0
20260502035004 53 84 0.0 0.0 0.00 0.00 0.00 67 1013.9
20260502034004 53 84 0.0 0.0 0.00 0.00 0.00 67 1013.8
20260502033005 53 84 0.0 0.0 0.00 0.00 0.00 68 1013.7
20260502032004 53 84 0.0 0.0 0.00 0.00 0.00 67 1013.5
20260502031004 53 84 0.0 0.0 0.00 0.00 0.00 67 1013.5
20260502030005 54 84 0.0 0.0 0.00 0.00 0.00 67 1013.7
20260502025004 54 84 0.0 0.0 0.00 0.00 0.00 66 1013.6
20260502023005 54 84 0.0 0.0 0.00 0.00 0.00 66 1013.6
20260502022004 54 84 0.0 0.0 0.00 0.00 0.00 65 1013.9
20260502021004 54 84 0.0 0.0 0.00 0.00 0.00 65 1014.1
20260502020005 54 84 0.0 1.7 0.00 0.00 0.00 65 1013.8
20260502015004 54 85 0.0 0.0 0.00 0.00 0.00 64 1013.8
20260502014004 54 85 0.0 1.7 0.00 0.00 0.00 63 1013.9
20260502013004 55 85 0.0 0.9 0.00 0.00 0.00 61 1013.8
20260502011004 55 85 0.0 0.0 0.00 0.00 0.00 59 1013.5
20260502005005 56 85 0.0 1.7 0.00 0.00 0.00 58 1013.5
20260502004005 57 85 0.9 1.7 0.00 0.00 0.00 56 1013.4
20260502003004 57 88 0.9 1.7 0.00 0.00 0.00 54 1013.2
20260502002004 58 88 0.0 3.5 0.00 0.00 0.00 52 1012.9
20260502001005 59 117 0.0 1.7 0.00 0.00 0.00 49 1012.8
20260501235004 60 120 0.0 3.5 0.00 0.00 0.00 42 1012.8
20260501234004 60 88 0.0 0.0 0.00 0.00 0.00 38 1012.9
20260501233004 61 88 0.0 0.0 0.00 0.00 0.00 38 1013.0
20260501232005 62 86 0.0 0.0 0.00 0.00 0.00 37 1012.8
20260501231004 62 86 0.9 3.5 0.00 0.00 0.00 33 1012.7
20260501230004 62 76 0.0 5.2 0.00 0.00 0.00 29 1012.6
20260501225004 63 108 0.9 4.3 0.00 0.00 0.00 32 1012.5
20260501224004 63 324 0.0 5.2 0.00 0.00 0.00 29 1012.5
20260501223004 63 130 1.7 2.6 0.00 0.00 0.00 29 1012.7
20260501222004 64 40 1.7 6.1 0.00 0.00 0.00 27 1012.8